Regional Weather Roundup
Issued by NWS Albany, NY

Home | Current Version | Previous Version | Text Only | Print | Product List | Glossary On
Versions: 1 2 3 4 5 6 7 8 9 10 11 12 13 14 15 16 17 18 19 20 21 22 23 24 25 26 27 28 29 30 31 32 33 34 35 36 37 38 39 40 41 42 43 44 45 46 47 48 49 50
000
ASUS41 KALY 292110
RWRALY

NEW YORK STATE HOURLY WEATHER ROUNDUP
NATIONAL WEATHER SERVICE ALBANY NY
500 PM EDT TUE JUL 29 2014

NOTE: "FAIR" INDICATES FEW OR NO CLOUDS BELOW 12,000 FEET WITH NO
SIGNIFICANT WEATHER AND/OR NO OBSTRUCTIONS TO VISIBILITY.

NYZ032-033-038>043-046>054-057>066-NYZ062>081-292200-
EAST


CITY           SKY/WX    TMP DP  RH WIND       PRES   REMARKS
ALBANY         MOSUNNY   73  53  49 W10       29.89R
GLENS FALLS    PTSUNNY   72  51  47 NW5       29.87R
POUGHKEEPSIE   CLOUDY    73  51  46 NW6       29.89R
NEWBURGH       PTSUNNY   70  54  56 NW7       29.92R
MONTGOMERY     CLOUDY    72  51  47 NW6       29.91R
WHITE PLAINS   MOSUNNY   73  49  42 W10       29.90R
ISLIP          PTSUNNY   79  49  34 W9        29.88R
NEW YORK CITY  MOSUNNY   75  51  43 NW9       29.89R
CENTRAL PARK   PTSUNNY   74  49  41 MISG      29.93R
$$

NYZ005>009-017-018-044>046-055-056-292200-
CENTRAL


CITY           SKY/WX    TMP DP  RH WIND       PRES   REMARKS
FULTON         MOSUNNY   70  49  47 NW10      29.93S
SYRACUSE       PTSUNNY   70  49  47 NW13      29.92S
ROME           CLOUDY    69  51  52 NW7       29.92R
ELMIRA         CLOUDY    68  52  56 SW8       29.95R
BINGHAMTON     CLOUDY    63  51  65 N6        29.96R
MONTICELLO     CLOUDY    64  52  63 W7G16     29.96R
$$

NYZ026>034-041>043-292200-
NORTH


CITY           SKY/WX    TMP DP  RH WIND       PRES   REMARKS
WATERTOWN      MOSUNNY   67  52  58 SW9G18    29.92R
FORT DRUM      NOT AVBL
MASSENA        PTSUNNY   70  53  54 N5        29.88F
SARANAC LAKE   PTSUNNY   62  48  60 VRB3      29.91R
PLATTSBURGH    PTSUNNY   71  50  47 NW6       29.87R
$$

NYZ001>004-010>016-019>021-292200-
WEST


CITY           SKY/WX    TMP DP  RH WIND       PRES   REMARKS
NIAGARA FALLS  PTSUNNY   68  50  52 SW8       29.94S
BUFFALO        PTSUNNY   67  47  48 W13       29.95S
DUNKIRK        SUNNY     67  47  48 W12G24    29.97S
JAMESTOWN      MOSUNNY   63  48  59 NW10      29.99S
WELLSVILLE     CLOUDY    64  49  57 NW5       30.00S
ROCHESTER      PTSUNNY   68  49  50 CALM      29.95R
PENN YAN       CLOUDY    65  49  56 NW5       29.96R
$$

             KEY
       WCI = WIND CHILL INDEX
       VSB = VISIBILITY
       HX  = HEAT INDEX
$$



USA.gov is the U.S. government's official web portal to all federal, state and local government web resources and services.